TABLETSAT-AURORA (40017 NORAD) Tracking and Keplerian Element Data

This shows tracking and keplerian element data for the satellite.

Feedback or suggestion? Click here.




ElementValue
Catalog40017
NameTABLETSAT-AURORA
Epoch Orbit24409
Epoch Day346.79976076
Epoch Year2018
RAAN278.1354
Inclination97.9686
Eccentricity0.0023124
Argument of Perigee333.2545
Mean Anonmoly26.7464
Mean Motion14.93221088
Decay Rate4.2E-06
L11 40017U 14033H 18346.79976076 .00000420 00000-0 45804-4 0 9997
L22 40017 97.9686 278.1354 0023124 333.2545 26.7464 14.93221088244092

Live tracking and technical data element details for TABLETSAT-AURORA (NORAD 40017). TABLETSAT-AURORA can be tracked NOW for your location showing map with azimuth and elevation plus other details from your city location.

Track the satellite on the map from your city or location and see movement details for azimuth, elevation, latitude, longitude, range, height, and movement on the map or in text.







IsCatalogInMostPopularTable: catalog: 40017, numindb: 81
Update: records affected: 1



GetName: 40017 TABLETSAT-AURORA

Hit Count: updated at: Sat, 15 Dec 2018 14:53:00 GMT